Location: Mexico
(19.4000°N, 99.1500°W)
Time: 07:19:11
(UTC-06:00)

ISS - Pass Details

Date: 15 September 2019
Orbit: 411 x 421 km, 51.6° (Epoch: 18 September)

Event Time Altitude Azimuth Distance (km) Brightness Sun altitude
Rises 20:14:56 0° 228° (SW) 2,329 0.5 -23.2°
Reaches altitude 10° 20:17:03 10° 233° (SW) 1,469 -0.5 -23.7°
Enters shadow 20:19:20 36° 260° (W) 665 -2.3 -24.2°
